Location: Casteau
(50.5142°N, 4.0161°E)
Time: 07:38:43
(UTC+00:00)

Transit 2A - Pass Details

Date: 06 August 2021
Orbit: 594 x 964 km, 66.7° (Epoch: 24 September)

Event Time Altitude Azimuth Distance (km) Brightness Sun altitude
Rises 07:32:50 0° 276° (W) 2,938 8.5 29.0°
Reaches altitude 10° 07:35:46 10° 297° (WNW) 2,086 7.8 29.5°
Maximum altitude 07:38:54 17° 339° (NNW) 1,714 7.7 30.0°
Drops below altitude 10° 07:42:14 10° 20° (NNE) 2,233 8.6 30.5°
Sets 07:45:32 0° 40° (NE) 3,241 9.6 31.0°
